Location: ??????
(42.0089°N, 44.3281°E)
Time: 16:31:58
(UTC+00:00)

NOSS 8 (H) - Pass Details

Date: 31 May 2022
Orbit: 366 x 1779 km, 63.3° (Epoch: 02 July)

Event Time Altitude Azimuth Distance (km) Brightness Sun altitude
Rises 20:15:47 0° 298° (WNW) 2,782 9.0 -25.2°
Reaches altitude 10° 20:19:01 10° 268° (W) 2,127 7.9 -25.3°
Enters shadow 20:20:13 12° 253° (WSW) 2,073 7.7 -25.3°
